RH
32 57 62 48 36 35 38 95 98 99 91 55 30 27 40 47 70 83 68 96 97 96 97 97 96 97 98
50 62 80 85 79 75 51 100 100 100 100 98 71 49 64 40 21 74 69 55 80 96 94 95 97 95 93
45 68 82 97 92 100 85 93 100 100 100 99 96 86 62 58 20 18 20 20 19 55 70 37 23 42 50
50 65 86 98 96 94 100 76 99 100 100 100 98 97 90 77 51 34 24 28 41 20 16 32 20 19 20
55 73 73 84 100 98 87 97 100 100 99 100 100 98 98 82 90 82 69 57 44 21 13 14 16 17 16
39 75 85 80 90 99 100 85 99 100 99 100 97 94 99 90 78 71 57 41 28 22 20 17 16 17 19
36 42 84 91 77 71 88 98 84 96 99 93 98 96 100 99 100 99 70 43 36 38 42 46 44 44 41
70 39 46 66 91 97 99 97 100 96 89 88 93 98 100 100 100 97 95 70 62 57 55 53 52 54 50
61 90 69 44 56 55 57 81 94 92 94 98 100 100 100 100 100 100 100 96 86 81 78 73 67 52 48
39 56 80 95 73 46 52 49 45 48 57 46 44 50 54 56 57 60 69 69 63 62 58 52 45 39 46
41 41 52 80 92 83 69 75 76 72 73 71 63 54 51 49 54 54 55 52 47 44 39 38 42 39 27
37 44 50 38 51 89 92 88 78 72 77 76 80 82 75 75 73 76 73 64 60 59 56 51 48 47 86
18 23 46 57 44 40 55 77 79 80 78 72 74 92 100 100 100 99 99 100 90 63 53 58 59 68 73
42 36 21 29 46 62 46 39 35 56 58 71 90 99 100 100 95 93 82 82 72 77 83 81 70 77 78
52 51 50 44 23 29 60 67 51 42 33 29 47 65 78 68 67 80 96 100 96 100 100 84 80 80 83
68 73 64 66 57 46 19 41 65 72 55 61 62 32 36 54 49 58 54 50 54 64 77 94 63 55 55
89 99 98 85 88 85 68 38 17 40 65 79 77 78 73 58 52 49 55 55 53 50 46 43 52 54 53
Wind_Speed
48 50 50 58 64 68 65 59 64 67 77 78 81 85 81 86 79 75 76 78 62 54 57 53 42 39 54
39 45 39 36 45 51 59 48 46 53 61 70 73 78 74 82 85 84 83 86 84 85 68 71 65 59 47
36 39 32 25 33 41 40 53 48 46 53 58 63 67 71 76 85 88 89 89 83 83 76 75 66 63 61
30 30 28 22 17 27 33 53 49 51 45 48 56 57 62 64 72 81 86 83 80 74 75 75 71 64 64
28 26 23 20 19 21 25 45 48 49 47 45 45 49 54 58 55 58 61 63 65 71 72 72 72 66 63
27 26 23 20 20 21 20 34 47 39 47 36 37 44 57 69 69 69 68 64 63 61 62 63 63 62 59
23 26 25 22 18 20 23 21 35 46 47 46 47 45 46 45 52 55 62 61 60 57 55 53 53 52 52
23 23 23 23 23 22 23 27 27 31 40 44 44 42 40 44 51 52 52 56 58 59 58 56 55 52 53
21 21 21 23 24 24 25 25 27 35 35 36 39 45 45 44 45 49 53 54 56 56 56 56 55 55 57
26 21 20 21 22 24 22 24 29 31 30 32 33 35 37 39 40 42 46 48 48 50 52 53 53 54 53
23 23 22 21 21 22 22 24 25 27 29 33 32 34 36 38 40 42 45 48 50 52 54 54 53 52 52
25 23 23 20 18 20 22 25 26 26 25 26 29 30 31 33 33 35 35 36 39 43 45 49 56 53 51
31 28 25 24 22 21 21 21 19 22 29 29 31 29 30 31 33 33 32 34 33 34 36 39 42 44 52
35 33 32 29 27 25 23 22 22 17 12 14 20 26 33 29 34 36 35 35 34 36 35 35 35 35 37
43 39 37 36 33 31 28 28 28 25 25 25 22 20 19 15 11 11 17 22 23 26 29 37 35 35 38
47 46 43 40 39 37 36 33 32 33 32 29 27 27 27 27 25 22 23 24 23 20 19 23 27 29 31
57 54 50 47 44 42 40 39 37 37 37 36 34 33 32 32 31 30 29 29 29 29 28 29 32 35 35
Wind_Direction
306 302 285 263 249 246 242 240 240 243 244 243 243 244 245 248 248 245 245 246 241 240 244 233 244 260 250
312 306 304 268 247 243 236 225 234 239 244 244 244 245 244 246 247 246 248 251 256 252 260 258 262 270 267
315 316 309 291 254 239 235 219 221 232 239 241 245 244 246 246 248 250 253 255 257 258 265 267 268 265 265
316 321 313 305 287 250 238 217 222 228 229 235 240 242 245 246 247 250 253 256 259 258 257 259 266 264 264
315 317 314 304 282 261 257 221 222 229 228 230 235 238 239 241 241 247 253 256 259 259 257 258 261 262 264
305 306 302 300 285 276 265 233 227 231 232 234 236 243 245 247 248 252 255 257 260 260 261 262 262 261 259
313 299 291 286 277 270 273 251 236 235 236 243 249 249 254 251 245 244 249 251 254 256 255 256 256 256 256
313 301 296 281 273 264 255 253 249 240 238 240 244 243 244 246 248 247 246 249 251 252 253 254 255 257 259
331 308 303 292 285 276 264 256 247 245 243 243 244 243 243 243 245 247 247 248 250 253 254 256 255 257 258
319 323 309 292 291 285 272 265 260 252 251 249 251 253 253 254 253 252 252 252 253 253 252 251 252 253 255
310 310 311 308 288 286 283 275 264 260 257 258 253 251 254 256 258 259 259 260 259 257 255 252 250 252 257
293 296 300 299 303 288 277 274 273 270 265 263 264 260 258 258 257 255 258 260 260 258 258 254 249 250 248
290 287 284 287 285 290 291 281 272 268 262 258 257 262 268 268 266 261 257 263 259 259 260 259 254 254 248
280 283 285 279 276 275 276 279 276 263 251 259 261 263 269 274 267 266 263 260 260 262 256 253 247 244 245
277 277 280 283 280 273 269 270 270 267 268 264 257 254 249 239 251 255 249 251 254 272 263 250 247 247 249
273 273 274 277 279 280 275 266 264 265 264 261 260 262 259 251 248 244 241 240 243 243 243 238 231 233 235
269 270 271 271 273 276 276 276 271 264 263 260 258 256 254 255 255 254 251 251 250 248 246 243 240 240 241